TimeCDT,TemperatureF,Dew PointF,Humidity,Sea Level PressureIn,VisibilityMPH,Wind Direction,Wind SpeedMPH,Gust SpeedMPH,PrecipitationIn,Events,Conditions,WindDirDegrees,DateUTC
12:15 AM,59.5,54.7,84,30.10,10.0,South,5.8,-,N/A,,Scattered Clouds,170,2012-10-04 05:15:00
12:35 AM,59.0,54.5,85,30.10,10.0,South,4.6,-,N/A,,Clear,170,2012-10-04 05:35:00
12:55 AM,58.5,54.5,87,30.10,10.0,South,4.6,-,N/A,,Clear,170,2012-10-04 05:55:00
1:15 AM,59.0,54.7,86,30.10,10.0,South,4.6,-,N/A,,Clear,170,2012-10-04 06:15:00
1:35 AM,59.0,54.9,86,30.11,10.0,South,5.8,-,N/A,,Clear,170,2012-10-04 06:35:00
1:55 AM,59.0,55.2,87,30.11,10.0,South,4.6,-,N/A,,Clear,170,2012-10-04 06:55:00
2:15 AM,58.5,55.0,88,30.11,10.0,South,4.6,-,N/A,,Clear,170,2012-10-04 07:15:00
2:35 AM,58.8,55.4,88,30.11,7.0,South,3.5,-,N/A,,Scattered Clouds,170,2012-10-04 07:35:00
2:55 AM,59.4,55.8,88,30.11,10.0,South,3.5,-,N/A,,Mostly Cloudy,170,2012-10-04 07:55:00
3:15 AM,59.5,55.8,87,30.12,10.0,South,4.6,-,N/A,,Scattered Clouds,180,2012-10-04 08:15:00
3:35 AM,59.0,55.6,88,30.12,7.0,South,3.5,-,N/A,,Clear,190,2012-10-04 08:35:00
3:55 AM,58.5,55.4,90,30.12,7.0,South,4.6,-,N/A,,Clear,180,2012-10-04 08:55:00
4:15 AM,59.0,55.8,89,30.13,7.0,South,5.8,-,N/A,,Clear,180,2012-10-04 09:15:00
4:35 AM,59.4,55.8,88,30.13,7.0,South,5.8,-,N/A,,Scattered Clouds,180,2012-10-04 09:35:00
4:55 AM,59.4,55.8,88,30.13,7.0,South,5.8,-,N/A,,Overcast,190,2012-10-04 09:55:00
5:15 AM,59.4,55.8,88,30.14,7.0,South,3.5,-,N/A,,Overcast,190,2012-10-04 10:15:00
5:35 AM,59.2,55.4,87,30.14,10.0,South,4.6,-,N/A,,Scattered Clouds,190,2012-10-04 10:35:00
5:55 AM,59.9,55.8,86,30.14,10.0,South,4.6,-,N/A,,Scattered Clouds,180,2012-10-04 10:55:00
6:15 AM,59.9,55.6,86,30.14,10.0,South,5.8,-,N/A,,Clear,180,2012-10-04 11:15:00
6:35 AM,59.9,55.4,85,30.14,10.0,South,3.5,-,N/A,,Clear,190,2012-10-04 11:35:00
6:55 AM,59.7,55.4,86,30.15,10.0,South,4.6,-,N/A,,Clear,190,2012-10-04 11:55:00
7:15 AM,59.5,55.4,86,30.15,10.0,SSW,3.5,-,N/A,,Scattered Clouds,200,2012-10-04 12:15:00
7:35 AM,59.9,55.4,85,30.15,10.0,SSW,4.6,-,N/A,,Clear,200,2012-10-04 12:35:00
7:55 AM,61.2,55.9,83,30.16,10.0,SSW,6.9,-,N/A,,Scattered Clouds,200,2012-10-04 12:55:00
8:15 AM,62.6,56.1,79,30.17,10.0,SSW,5.8,-,N/A,,Clear,210,2012-10-04 13:15:00
8:35 AM,63.9,55.8,75,30.17,10.0,SSW,6.9,-,N/A,,Clear,210,2012-10-04 13:35:00
8:55 AM,65.1,55.4,71,30.18,10.0,SSW,8.1,-,N/A,,Clear,210,2012-10-04 13:55:00
9:15 AM,66.9,55.2,66,30.18,10.0,SSW,6.9,-,N/A,,Clear,210,2012-10-04 14:15:00
9:35 AM,68.4,54.1,60,30.18,10.0,SSW,6.9,-,N/A,,Clear,210,2012-10-04 14:35:00
9:55 AM,69.6,54.5,59,30.18,10.0,SSW,8.1,-,N/A,,Clear,210,2012-10-04 14:55:00
10:15 AM,70.9,54.5,56,30.18,10.0,SSW,9.2,-,N/A,,Clear,200,2012-10-04 15:15:00
10:35 AM,71.8,54.5,54,30.18,10.0,SSW,9.2,-,N/A,,Clear,200,2012-10-04 15:35:00
10:55 AM,72.9,54.3,52,30.18,10.0,SSW,6.9,-,N/A,,Clear,210,2012-10-04 15:55:00
11:15 AM,75.2,55.4,50,30.17,10.0,SSW,9.2,-,N/A,,Clear,210,2012-10-04 16:15:00
11:35 AM,76.1,54.7,47,30.17,10.0,SSW,11.5,-,N/A,,Clear,200,2012-10-04 16:35:00
11:55 AM,76.3,55.0,48,30.16,10.0,SSW,11.5,-,N/A,,Clear,210,2012-10-04 16:55:00
12:15 PM,77.0,55.0,47,30.16,10.0,South,11.5,-,N/A,,Clear,190,2012-10-04 17:15:00
12:35 PM,77.5,54.5,45,30.15,10.0,SSW,12.7,16.1,N/A,,Clear,200,2012-10-04 17:35:00
12:55 PM,78.6,53.4,42,30.15,10.0,SW,11.5,17.3,N/A,,Clear,230,2012-10-04 17:55:00
1:15 PM,79.3,53.1,40,30.15,10.0,SSW,16.1,-,N/A,,Clear,210,2012-10-04 18:15:00
1:35 PM,80.1,53.2,39,30.14,10.0,SSW,10.4,-,N/A,,Clear,210,2012-10-04 18:35:00
1:55 PM,80.1,51.8,37,30.13,10.0,SSW,13.8,21.9,N/A,,Clear,200,2012-10-04 18:55:00
2:15 PM,80.6,49.8,34,30.13,10.0,SSW,15.0,20.7,N/A,,Clear,200,2012-10-04 19:15:00
2:35 PM,81.0,49.1,33,30.13,10.0,SW,10.4,17.3,N/A,,Clear,230,2012-10-04 19:35:00
2:55 PM,81.3,48.7,32,30.13,10.0,SSW,12.7,18.4,N/A,,Clear,200,2012-10-04 19:55:00
3:15 PM,81.5,49.1,32,30.12,10.0,SW,11.5,17.3,N/A,,Scattered Clouds,220,2012-10-04 20:15:00
3:35 PM,81.0,48.6,32,30.12,10.0,SSW,11.5,18.4,N/A,,Clear,210,2012-10-04 20:35:00
3:55 PM,80.8,48.9,33,30.12,10.0,SSW,15.0,-,N/A,,Clear,210,2012-10-04 20:55:00
4:15 PM,80.8,48.4,32,30.12,10.0,SW,12.7,-,N/A,,Clear,220,2012-10-04 21:15:00
4:35 PM,80.2,48.2,32,30.12,10.0,SSW,11.5,-,N/A,,Clear,200,2012-10-04 21:35:00
4:55 PM,79.9,50.2,35,30.12,10.0,South,10.4,-,N/A,,Clear,190,2012-10-04 21:55:00
5:15 PM,78.8,50.9,38,30.12,10.0,SSW,8.1,-,N/A,,Clear,200,2012-10-04 22:15:00
5:35 PM,77.9,50.9,39,30.12,10.0,South,6.9,-,N/A,,Clear,190,2012-10-04 22:35:00
5:55 PM,76.6,52.0,42,30.12,10.0,South,6.9,-,N/A,,Clear,190,2012-10-04 22:55:00
6:15 PM,74.5,52.3,46,30.12,10.0,South,4.6,-,N/A,,Clear,170,2012-10-04 23:15:00
6:35 PM,73.4,53.2,49,30.12,10.0,South,5.8,-,N/A,,Clear,170,2012-10-04 23:35:00
6:55 PM,72.5,52.9,50,30.13,10.0,South,4.6,-,N/A,,Scattered Clouds,180,2012-10-04 23:55:00
7:15 PM,71.1,52.9,53,30.13,10.0,South,4.6,-,N/A,,Scattered Clouds,170,2012-10-05 00:15:00
7:35 PM,71.2,51.4,50,30.12,10.0,South,9.2,-,N/A,,Scattered Clouds,180,2012-10-05 00:35:00
7:55 PM,71.6,51.8,50,30.13,10.0,South,4.6,-,N/A,,Clear,180,2012-10-05 00:55:00
8:15 PM,69.6,50.9,51,30.13,10.0,South,4.6,-,N/A,,Clear,180,2012-10-05 01:15:00
8:35 PM,69.3,51.1,52,30.13,10.0,South,5.8,-,N/A,,Clear,190,2012-10-05 01:35:00
8:55 PM,68.0,51.8,56,30.13,10.0,South,6.9,-,N/A,,Clear,190,2012-10-05 01:55:00
9:15 PM,68.9,51.3,53,30.12,10.0,South,6.9,-,N/A,,Clear,180,2012-10-05 02:15:00
9:35 PM,66.9,52.2,59,30.13,10.0,SSW,5.8,-,N/A,,Clear,200,2012-10-05 02:35:00
9:55 PM,65.8,52.2,61,30.13,10.0,SSW,5.8,-,N/A,,Clear,200,2012-10-05 02:55:00
10:15 PM,66.4,52.3,61,30.15,10.0,WSW,6.9,-,N/A,,Scattered Clouds,250,2012-10-05 03:15:00
10:35 PM,63.9,49.1,59,30.16,10.0,North,11.5,-,N/A,,Mostly Cloudy,350,2012-10-05 03:35:00
10:55 PM,61.5,49.3,64,30.17,10.0,North,8.1,-,N/A,,Scattered Clouds,360,2012-10-05 03:55:00
11:15 PM,60.3,48.0,64,30.17,10.0,North,8.1,-,N/A,,Scattered Clouds,10,2012-10-05 04:15:00
11:35 PM,58.8,46.4,63,30.18,10.0,North,9.2,17.3,N/A,,Scattered Clouds,350,2012-10-05 04:35:00
11:55 PM,57.6,45.5,64,30.18,10.0,North,8.1,-,N/A,,Clear,360,2012-10-05 04:55:00